Wind_Speed
20 20 18 17 19 22 24 25 27 26 22 25 28 31 27 26 33 36 38 40 41 41 40 36 32 29 32 34 35 37 38 37 36 34 34 35 36 37 38 40 40 40 40 41
21 22 22 22 23 25 25 26 27 26 23 24 26 27 27 26 33 38 40 42 43 42 42 41 39 41 40 40 38 37 39 38 37 35 35 37 39 40 41 42 42 42 42 43
24 24 26 27 27 29 29 29 29 29 27 28 29 28 26 27 34 39 42 44 46 47 47 46 43 39 40 39 39 39 42 40 38 37 38 39 41 42 42 42 42 42 43 44
21 24 27 28 30 31 32 32 33 33 30 32 33 34 32 33 37 41 45 48 51 51 51 47 42 39 38 39 41 40 39 39 40 40 40 41 42 42 42 42 41 41 42 43
16 19 22 24 26 30 32 34 36 36 35 34 37 41 40 40 42 45 49 52 53 53 50 46 42 39 39 40 40 40 40 40 41 41 41 43 42 42 41 40 40 40 41 43
11 13 14 16 18 23 27 29 31 33 33 35 35 41 45 44 47 49 52 54 54 54 51 48 45 44 43 42 41 41 39 38 39 39 39 40 40 39 39 39 39 41 42 43
7 8 9 10 11 13 17 19 20 22 25 28 28 35 40 42 46 49 51 53 54 54 53 52 50 47 45 44 42 39 36 36 36 38 39 39 39 39 39 40 41 43 44 45
7 8 10 12 13 15 17 19 21 23 24 23 25 30 32 36 39 42 45 49 52 53 54 56 55 53 50 46 44 41 39 39 40 41 41 41 42 42 43 44 45 46 47 48
10 11 12 14 15 16 17 18 21 24 26 27 26 27 32 35 39 41 43 46 49 51 53 55 57 55 53 49 45 43 42 43 44 44 45 46 47 47 47 47 49 49 49 48
10 8 8 10 11 11 12 12 16 19 25 27 28 28 29 34 38 42 45 47 50 52 53 53 53 51 48 47 46 44 44 44 44 44 45 47 48 48 48 49 49 48 45 42
6 6 6 9 11 12 13 15 18 21 25 31 36 34 34 37 40 44 46 48 47 47 46 47 47 44 40 38 38 35 37 39 39 37 37 37 39 41 42 43 42 41 39 37
9 10 10 13 15 16 17 19 22 26 29 33 39 40 36 37 40 44 47 48 48 47 43 42 39 37 35 32 30 28 27 29 31 32 32 33 34 36 37 37 37 37 37 36
14 15 15 18 19 20 22 24 26 29 32 35 37 36 34 34 36 38 41 43 45 45 41 36 31 29 27 26 26 28 29 29 30 30 31 32 33 34 34 35 35 35 35 35
18 18 19 20 23 24 24 26 28 31 33 36 34 33 30 33 35 35 36 38 38 37 35 33 30 25 23 23 25 27 28 29 30 30 30 30 31 32 33 34 33 33 33 34
23 23 23 24 26 26 25 26 29 30 32 33 31 30 30 31 32 33 31 29 27 26 26 27 26 25 23 23 24 26 28 29 29 29 29 29 30 31 32 32 32 32 32 32
30 29 28 28 29 29 27 27 28 29 30 30 28 27 28 29 29 27 24 19 16 16 16 16 18 19 21 21 22 24 26 27 28 28 29 29 30 30 31 31 30 29 29 29
35 34 33 32 32 32 30 28 27 27 27 27 26 26 26 26 25 24 21 16 12 10 9 11 13 16 19 20 21 22 23 24 25 26 28 28 29 29 29 29 29 28 28 28
36 38 38 37 36 33 30 29 26 25 24 24 25 25 24 23 22 21 18 15 11 9 8 9 11 14 16 18 20 21 22 22 22 24 25 26 28 28 28 28 27 27 27 27
32 36 38 38 37 35 29 29 26 25 22 23 24 23 21 19 19 18 16 13 11 10 10 10 11 12 14 16 18 19 20 21 22 22 23 24 25 26 26 25 25 24 24 24
27 28 31 33 34 35 30 28 25 25 22 22 21 20 18 16 16 16 14 13 12 11 10 10 11 11 13 15 16 18 19 21 22 22 22 23 22 22 21 21 20 20 22 23
24 25 26 28 30 31 30 29 26 26 24 22 20 18 16 15 15 15 14 12 12 11 11 10 11 11 12 13 15 17 18 20 21 21 21 20 19 18 18 18 18 19 20 21
26 26 25 25 28 29 29 31 30 28 26 23 21 18 16 14 14 13 12 11 10 10 10 9 9 10 10 10 12 13 14 15 16 16 16 15 15 14 14 14 14 15 16 18
26 27 28 26 27 28 30 32 32 31 28 25 23 20 17 15 13 12 11 10 9 8 7 7 7 8 8 8 8 8 9 9 10 10 11 11 11 12 12 12 12 13 15 16
23 28 29 29 27 28 29 30 31 31 29 26 24 23 20 18 15 13 12 11 10 9 8 7 7 7 7 7 7 6 6 6 5 6 7 8 10 11 12 13 14 16 16 17
24 26 27 27 27 27 25 26 27 28 28 27 25 25 24 22 19 18 16 15 14 13 12 10 10 9 9 8 8 7 6 6 5 4 5 7 9 11 13 15 16 17 17 17
28 27 26 24 25 27 24 24 24 25 26 27 26 26 27 25 23 22 21 20 19 17 16 15 14 13 12 12 11 10 9 8 8 7 7 8 9 11 12 13 13 13 14 15
Wind_Direction
237 234 231 233 233 231 230 230 231 228 227 237 242 246 242 249 260 263 264 266 267 268 270 273 276 268 266 267 265 269 267 267 269 272 276 279 281 283 285 286 288 289 289 291
236 235 233 233 236 238 238 238 240 237 231 238 245 251 250 247 255 261 264 267 270 273 276 279 280 278 274 268 262 262 264 265 266 268 272 274 276 278 280 283 285 286 287 288
240 238 238 237 239 244 247 246 246 242 232 233 240 242 244 242 248 256 263 269 273 277 279 283 283 276 272 270 272 268 265 267 266 270 271 271 273 275 278 280 282 283 285 287
244 246 247 246 244 248 250 252 253 251 243 234 239 241 237 238 244 251 259 265 270 274 278 280 279 275 271 270 271 269 267 266 267 268 270 272 275 278 279 280 281 283 286 289
246 251 256 258 256 256 256 256 258 260 256 247 241 246 244 243 248 254 260 265 269 272 274 275 274 273 272 272 272 270 268 267 268 270 272 274 277 279 280 281 282 285 288 289
245 249 255 257 256 257 260 262 264 265 264 260 253 251 253 251 254 258 263 267 271 272 272 273 273 272 271 271 272 272 271 271 271 273 274 276 278 279 280 281 283 285 287 289
244 246 249 251 251 255 263 269 271 269 267 266 262 256 258 256 255 257 260 263 266 268 270 270 271 268 266 266 266 269 272 274 274 275 276 277 279 280 281 282 283 285 287 288
257 255 258 260 261 262 269 276 279 281 278 272 266 266 266 263 261 259 259 261 263 264 265 265 266 267 264 259 259 262 267 270 273 274 276 277 278 279 281 283 285 286 287 288
271 268 272 272 273 272 273 274 280 283 288 288 286 277 270 270 269 266 263 262 262 263 264 265 264 266 264 257 255 257 261 266 270 273 274 276 276 278 280 282 285 286 287 287
276 280 278 285 287 290 287 286 286 292 298 302 302 295 285 278 275 270 267 265 264 263 264 267 269 268 267 259 255 257 258 262 267 271 274 275 275 276 278 281 283 284 284 285
280 284 288 289 294 298 297 300 302 304 307 308 309 304 298 287 279 274 270 265 264 264 262 264 266 267 268 264 259 259 260 261 264 268 273 274 275 276 277 279 281 280 281 282
292 294 295 295 298 300 303 307 308 309 311 312 311 312 307 297 288 279 272 265 260 260 262 263 265 266 266 263 259 261 264 265 266 268 271 273 274 276 277 278 278 278 278 280
291 293 296 297 298 302 306 308 310 311 314 316 317 318 314 309 304 294 282 274 267 264 263 261 263 264 265 269 267 263 264 265 267 269 270 271 272 274 276 277 277 277 276 276
290 291 294 296 297 299 302 307 310 313 317 319 322 321 318 313 310 305 293 284 275 267 261 259 264 265 268 273 272 265 262 263 265 267 269 270 271 273 275 275 276 275 274 274
291 291 292 292 291 292 297 303 306 311 316 321 325 323 321 319 317 313 305 294 281 271 266 265 266 267 266 270 270 265 261 261 264 265 267 269 270 272 273 274 274 275 275 275
292 292 291 292 291 292 295 298 302 308 315 320 323 324 323 325 326 326 321 311 290 274 266 265 263 262 261 264 265 264 262 262 264 265 266 267 268 269 270 272 274 276 277 277
284 287 288 288 287 288 290 292 297 303 310 317 322 324 324 326 330 333 331 324 310 286 261 250 251 257 258 260 261 261 262 263 263 265 266 265 265 266 269 270 273 276 279 280
280 280 280 281 282 282 286 287 292 298 306 314 321 325 326 325 327 329 331 329 325 309 286 272 266 263 263 262 261 261 262 264 265 265 266 266 265 266 268 272 275 279 281 283
286 282 280 279 278 277 279 284 290 294 301 310 318 323 327 327 326 327 330 328 326 319 306 294 286 279 274 272 270 270 269 269 270 270 268 268 268 270 272 276 279 282 284 285
305 299 292 286 280 279 278 279 283 286 291 299 308 317 325 328 327 328 333 332 329 323 317 312 307 301 294 288 284 281 278 275 273 271 271 271 272 275 279 282 285 287 287 287
314 311 302 295 288 284 287 284 281 280 284 290 299 311 322 327 327 327 330 334 334 331 326 321 315 309 304 298 292 288 283 279 275 272 271 273 276 279 282 284 287 289 290 292
315 314 310 302 295 291 288 286 284 282 281 285 290 298 308 316 320 321 326 334 340 338 335 331 327 322 315 308 302 298 290 283 278 274 273 274 276 278 280 284 289 294 298 299
311 309 306 305 302 295 287 286 286 283 279 278 283 286 292 298 303 308 313 322 330 336 342 343 340 335 329 324 319 314 307 297 286 279 276 272 272 275 276 281 289 298 302 301
309 304 305 305 305 299 291 286 284 281 277 273 275 277 280 283 286 289 293 297 301 306 311 316 321 324 325 329 333 336 337 334 316 291 277 272 269 270 274 279 287 294 297 296
308 309 310 310 304 297 296 288 283 281 277 272 270 270 271 272 275 276 279 283 285 287 290 293 296 300 303 306 312 321 329 333 329 312 285 272 269 270 276 281 286 291 293 294
306 311 312 312 304 298 297 292 287 282 278 272 267 264 265 267 268 269 271 274 277 281 284 286 288 291 294 295 296 297 301 305 308 306 299 289 283 282 283 286 289 291 293 295
Height
5859 5862 5862 5863 5864 5865 5866 5867 5869 5871 5872 5872 5871 5872 5874 5875 5874 5875 5877 5877 5878 5878 5880 5880 5881 5881 5883 5884 5882 5883 5882 5881 5880 5880 5880 5879 5879 5878 5877 5876 5875 5875 5874 5874
5856 5857 5858 5859 5860 5861 5863 5863 5864 5866 5867 5868 5868 5868 5869 5869 5870 5870 5869 5869 5869 5870 5871 5874 5876 5877 5876 5874 5871 5871 5870 5870 5870 5870 5871 5871 5870 5870 5869 5868 5867 5867 5866 5865
5851 5853 5853 5854 5855 5857 5858 5859 5859 5860 5862 5862 5863 5865 5865 5865 5865 5865 5864 5863 5862 5862 5863 5864 5865 5866 5865 5863 5862 5861 5860 5860 5861 5862 5862 5862 5861 5861 5860 5860 5859 5859 5858 5857
5846 5847 5849 5850 5851 5851 5852 5853 5853 5854 5857 5859 5859 5860 5862 5860 5860 5859 5858 5857 5855 5854 5854 5855 5854 5855 5855 5854 5854 5852 5850 5851 5852 5852 5853 5853 5852 5852 5851 5851 5851 5850 5849 5847
5841 5842 5843 5845 5846 5846 5846 5846 5846 5847 5850 5853 5854 5853 5856 5857 5856 5854 5852 5849 5848 5846 5846 5845 5844 5844 5844 5844 5844 5843 5842 5842 5842 5843 5843 5843 5843 5843 5843 5842 5842 5841 5839 5838
5838 5839 5839 5840 5840 5840 5839 5839 5840 5840 5842 5843 5847 5846 5846 5850 5849 5848 5844 5841 5838 5837 5836 5835 5833 5832 5832 5832 5832 5832 5832 5833 5833 5834 5834 5834 5834 5834 5833 5833 5833 5832 5830 5828
5836 5836 5836 5836 5835 5835 5834 5834 5834 5834 5834 5834 5836 5835 5835 5836 5836 5835 5833 5830 5827 5825 5825 5823 5821 5819 5817 5819 5820 5822 5823 5823 5824 5824 5824 5824 5824 5824 5824 5824 5823 5822 5821 5819
5834 5834 5833 5832 5832 5831 5831 5830 5830 5828 5827 5828 5828 5826 5826 5823 5822 5822 5820 5818 5816 5814 5813 5811 5810 5808 5807 5806 5807 5810 5813 5814 5814 5814 5814 5814 5814 5814 5814 5813 5812 5811 5810 5808
5830 5831 5830 5828 5827 5827 5826 5825 5824 5822 5820 5818 5819 5818 5816 5813 5811 5810 5808 5806 5803 5801 5799 5798 5797 5796 5796 5795 5795 5798 5801 5803 5804 5804 5804 5804 5803 5803 5803 5802 5801 5800 5799 5797
5826 5826 5826 5824 5823 5822 5822 5821 5819 5817 5813 5810 5809 5808 5808 5804 5800 5796 5794 5792 5790 5788 5786 5785 5784 5784 5783 5783 5784 5786 5788 5791 5793 5794 5793 5793 5792 5792 5792 5792 5791 5790 5788 5787
5823 5823 5823 5821 5820 5819 5818 5817 5814 5811 5809 5804 5799 5800 5797 5792 5788 5784 5781 5778 5776 5774 5772 5772 5772 5772 5772 5772 5774 5776 5778 5780 5782 5783 5783 5782 5782 5782 5781 5781 5780 5779 5779 5778
5821 5821 5820 5818 5817 5815 5813 5811 5809 5806 5802 5798 5791 5790 5783 5778 5773 5769 5765 5762 5760 5760 5760 5761 5761 5761 5762 5764 5765 5767 5769 5771 5772 5773 5773 5773 5773 5773 5772 5772 5771 5770 5770 5769
5819 5818 5817 5815 5814 5811 5809 5806 5803 5800 5796 5790 5784 5781 5773 5766 5760 5755 5750 5746 5745 5746 5748 5750 5751 5752 5753 5755 5757 5758 5760 5762 5763 5763 5763 5763 5764 5764 5763 5763 5762 5761 5761 5761
5816 5815 5814 5812 5808 5805 5803 5800 5796 5793 5788 5782 5777 5771 5766 5758 5751 5744 5738 5734 5733 5734 5736 5740 5742 5744 5746 5747 5749 5750 5751 5753 5753 5754 5754 5754 5755 5755 5755 5754 5754 5753 5753 5753
5810 5809 5807 5806 5802 5800 5798 5795 5791 5787 5782 5776 5771 5764 5758 5751 5744 5736 5729 5724 5722 5724 5727 5730 5733 5736 5738 5740 5741 5742 5743 5744 5745 5746 5746 5746 5746 5746 5746 5746 5746 5745 5745 5745
5802 5801 5800 5799 5795 5793 5792 5790 5786 5782 5776 5770 5765 5760 5752 5745 5738 5731 5724 5719 5717 5717 5720 5722 5725 5727 5729 5731 5733 5734 5735 5736 5737 5737 5738 5738 5738 5738 5738 5738 5738 5737 5737 5737
5795 5793 5792 5791 5788 5786 5786 5783 5780 5777 5771 5766 5760 5755 5748 5741 5735 5729 5723 5718 5716 5715 5716 5718 5719 5721 5722 5724 5725 5727 5728 5728 5729 5729 5729 5729 5729 5730 5730 5730 5730 5730 5729 5729
5788 5785 5783 5782 5780 5779 5780 5775 5774 5770 5766 5761 5755 5750 5744 5738 5733 5727 5723 5719 5716 5714 5714 5715 5716 5716 5717 5718 5719 5720 5720 5720 5720 5721 5721 5721 5721 5721 5722 5722 5722 5722 5722 5721
5780 5777 5774 5772 5769 5769 5770 5767 5766 5763 5760 5756 5751 5746 5741 5735 5730 5725 5721 5718 5715 5714 5713 5712 5712 5712 5712 5713 5713 5713 5713 5713 5714 5713 5713 5713 5713 5714 5714 5714 5715 5715 5714 5714
5772 5769 5766 5762 5760 5758 5761 5760 5758 5757 5754 5751 5747 5742 5737 5733 5728 5724 5720 5716 5714 5712 5710 5709 5709 5708 5708 5708 5707 5707 5707 5707 5707 5707 5706 5707 5707 5707 5707 5708 5708 5708 5707 5707
5765 5761 5758 5755 5751 5749 5750 5750 5750 5749 5748 5745 5741 5738 5734 5729 5726 5722 5718 5715 5712 5710 5708 5707 5706 5705 5704 5704 5703 5702 5702 5701 5701 5700 5700 5701 5701 5701 5702 5702 5702 5702 5701 5700
5759 5755 5751 5748 5744 5745 5743 5740 5740 5740 5739 5737 5736 5733 5730 5727 5724 5720 5716 5713 5710 5708 5707 5705 5704 5703 5701 5700 5699 5698 5697 5696 5695 5695 5695 5695 5696 5696 5697 5697 5697 5696 5695 5694
5755 5751 5746 5743 5741 5737 5734 5732 5730 5730 5730 5730 5729 5728 5726 5724 5721 5718 5715 5712 5710 5708 5706 5704 5703 5702 5700 5699 5697 5696 5694 5692 5691 5691 5691 5691 5692 5692 5692 5692 5692 5692 5691 5690
5751 5746 5741 5738 5734 5730 5727 5724 5722 5721 5721 5722 5722 5721 5720 5719 5718 5716 5713 5711 5709 5707 5705 5703 5702 5701 5699 5698 5696 5694 5692 5690 5688 5688 5687 5688 5688 5688 5688 5688 5688 5687 5686 5685
5745 5740 5736 5732 5729 5724 5721 5717 5715 5713 5712 5713 5714 5714 5713 5713 5713 5711 5710 5708 5706 5704 5703 5701 5700 5699 5697 5696 5694 5692 5690 5689 5687 5686 5685 5685 5684 5684 5684 5684 5683 5682 5681 5679
5738 5734 5730 5727 5723 5718 5716 5712 5708 5705 5704 5704 5704 5705 5705 5706 5706 5705 5704 5703 5702 5700 5699 5698 5697 5695 5694 5692 5691 5689 5688 5686 5685 5684 5682 5682 5681 5680 5679 5679 5678 5677 5675 5674